Tracking 19176 objects as of 26-May-2018
HD Live streaming from Space Station
objects crossing your sky now

DMSP 5D-2 F11 DEB

Track DMSP 5D-2 F11 DEB now!
10-day predictions


NORAD ID: 29070
Int'l Code: 1991-082BR
Perigee: 781.5 km
Apogee: 799.8 km
Inclination: 98.8 °
Period: 100.5 minutes
Semi major axis: 7161 km
RCS: 0.0089 m2 (small)
Launch date: November 28, 1991
Source: United States (US)
Launch site: AIR FORCE WESTERN TEST RANGE (AFWTR)

Note: This is SATELLITE DEBRIS
aabbcc
Your satellite tracking list
Your tracking list is empty




NASA's NSSDC Master Catalog

Two Line Element Set (TLE):
1 29070U 91082BR  18145.29810702 +.00001052 +00000-0 +40507-3 0  9993
2 29070 098.7534 174.8808 0012759 220.1795 139.8446 14.32456529707697
Source of the keplerian elements: AFSPC